Location: ????????
(55.0559°N, 39.1270°E)
Time: 01:15:56
(UTC+00:00)

USA 238 - Pass Details

Date: 15 November 2025
Orbit: 887 x 1324 km, 63.4° (Epoch: 24 November)

Event Time Altitude Azimuth Distance (km) Brightness Sun altitude
Exits shadow 03:51:00 10° 306° (NW) 2,964 5.4 -9.2°
Reaches altitude 10° 03:51:06 10° 307° (NW) 2,926 5.4 -9.2°
Maximum altitude 03:58:03 60° 27° (NNE) 1,322 4.3 -8.2°
Drops below altitude 10° 04:05:44 10° 107° (ESE) 3,227 8.0 -7.2°
Sets 04:08:42 0° 111° (ESE) 4,239 9.6 -6.8°
